Flag for Norway Weather past 2 weeks in Fauske, Norway

Now
37 °F

Partly sunny.


Feels Like: 27 °F
Forecast: 34 / 40 °F
Wind: 18 mph from Southeast

Location: Bodo Vi

Current Time: Mar 5, 2015 at 4:30:16 PM

Latest Report: Mar 5, 2015 at 3:50 PM


Visibility: N/A

Pressure: 29.77 "Hg

Humidity: 60%

Dew point: 25 °F

Location of FauskeLocation

Historic Weather in Fauske — Graph

°F

Fauske temperature yesterday

Maximum temperature yesterday: 34 °F (at 12:20 PM)
Minimum temperature yesterday: 28 °F (at 5:50 AM)
Average temperature yesterday: 31 °F

Past Weeks' High & Low Weather Summary

 TemperatureHumidityPressure
High45 °F (Feb 19, 8:50 AM)100% (Feb 18, 6:20 PM)30.04 "Hg (Feb 18, 6:20 PM)
Low28 °F (Feb 22, 8:50 PM)49% (Feb 28, 1:50 PM)28.82 "Hg (Mar 1, 7:50 PM)
Average37 °F74%29.27 "Hg
* Reported Feb 18 3:20 PM — Mar 5 3:20 PM, Fauske, Weather by CustomWeather, © 2015

Note: Actual official high and low records may vary slightly from our data, if they occured in-between our weather recording intervals... More about our weather records

Advertising

Fauske weather history for previous 24 hours

 ConditionsComfort  
Time TempWeatherWind HumidityBarometerVisibility
3:20 PM
Thu, Mar 5
37 °FPartly sunny.14 mph60%29.80 "HgN/A
2:50 PM37 °FPartly sunny.13 mph60%29.83 "HgN/A
2:20 PM37 °FPartly sunny.12 mph65%29.86 "HgN/A
1:50 PM37 °FPartly sunny.14 mph60%29.86 "HgN/A
1:20 PM37 °FPartly sunny.13 mph65%29.89 "HgN/A
12:50 PM36 °FPartly sunny.18 mph70%29.92 "HgN/A
12:20 PM36 °FPartly sunny.20 mph70%29.95 "HgN/A
11:50 AM34 °FPartly sunny.20 mph70%29.95 "HgN/A
11:20 AM34 °FPartly sunny.20 mph70%29.98 "HgN/A
10:50 AM34 °FPartly sunny.22 mph70%29.98 "HgN/A
10:20 AM34 °FPartly sunny.18 mph70%30.01 "HgN/A
9:50 AM32 °FPartly sunny.18 mph75%30.01 "HgN/A
9:20 AM32 °FPartly sunny.16 mph75%30.01 "HgN/A
8:50 AM32 °FScattered clouds.16 mph69%30.04 "HgN/A
8:20 AM32 °FScattered clouds.14 mph75%30.04 "HgN/A
7:50 AM30 °FScattered clouds.15 mph75%30.04 "HgN/A
7:20 AM30 °FPartly sunny.14 mph75%30.04 "HgN/A
6:50 AM30 °FPassing clouds.14 mph69%30.04 "HgN/A
6:20 AM28 °FPassing clouds.15 mph74%30.01 "HgN/A
5:50 AM28 °FPassing clouds.18 mph74%30.01 "HgN/A
5:20 AM30 °FPassing clouds.16 mph69%30.01 "HgN/A
4:50 AM30 °FPassing clouds.16 mph69%30.04 "HgN/A
4:20 AM30 °FPassing clouds.14 mph75%30.04 "HgN/A
3:50 AM28 °FPassing clouds.15 mph74%30.01 "HgN/A
2:50 AM28 °FPassing clouds.15 mph74%30.01 "HgN/A
1:50 AM28 °FPassing clouds.16 mph74%29.98 "HgN/A
12:50 AM30 °FPartly cloudy.14 mph75%29.98 "HgN/A
11:20 PM
Wed, Mar 4
30 °FPassing clouds.15 mph69%29.95 "HgN/A
10:50 PM30 °FPassing clouds.14 mph75%29.92 "HgN/A
10:20 PM30 °FPassing clouds.14 mph69%29.92 "HgN/A
9:50 PM30 °FPassing clouds.13 mph75%29.92 "HgN/A
9:20 PM30 °FClear.13 mph69%29.92 "Hg10 mi
8:50 PM30 °FClear.14 mph69%29.89 "Hg10 mi
8:20 PM30 °FClear.13 mph75%29.89 "Hg10 mi
7:50 PM32 °FClear.12 mph69%29.89 "Hg10 mi
7:20 PM32 °FClear.13 mph64%29.86 "Hg10 mi
6:50 PM32 °FClear.13 mph64%29.86 "Hg10 mi
6:20 PM32 °FClear.12 mph69%29.86 "Hg10 mi
5:50 PM32 °FClear.12 mph69%29.83 "Hg10 mi
5:20 PM32 °FSunny.12 mph69%29.83 "Hg10 mi
4:50 PM32 °FSunny.10 mph69%29.83 "Hg10 mi
4:20 PM34 °FSunny.9 mph65%29.80 "Hg10 mi
Weather by CustomWeather, © 2015

See weather overviewHow to use our weather pages